Hourly Weather Rudnyky

Today, 11 April, Sunday

Time Temperature Precipitation Wind Pressure Humidity
00:00 +7°C° 0 mm 1 mps 745 mmHg 97%
01:00 +6°C° 0 mm 1 mps 745 mmHg 96%
02:00 +6°C° 0 mm 1 mps 745 mmHg 97%
03:00 +5°C° 0 mm 1 mps 745 mmHg 97%
04:00 +5°C° 0 mm 1 mps 745 mmHg 97%
05:00 +4°C° 0 mm 1 mps 746 mmHg 99%
06:00 +3°C° 0 mm 1 mps 746 mmHg 99%
07:00 +4°C° 0 mm 1 mps 746 mmHg 98%
08:00 +6°C° 0 mm 1 mps 746 mmHg 98%
09:00 +7°C° 0 mm 2 mps 747 mmHg 97%
10:00 +9°C° 0 mm 3 mps 747 mmHg 96%
11:00 +10°C° 0 mm 3 mps 747 mmHg 94%
12:00 +12°C° 0 mm 4 mps 747 mmHg 96%
13:00 +14°C° 0 mm 5 mps 747 mmHg 90%
14:00 +14°C° 0 mm 5 mps 746 mmHg 82%
15:00 +14°C° 0 mm 5 mps 746 mmHg 81%
16:00 +14°C° 0 mm 6 mps 746 mmHg 82%
17:00 +13°C° 0 mm 6 mps 746 mmHg 83%
18:00 +11°C° 0 mm 6 mps 746 mmHg 86%
19:00 +10°C° 0 mm 5 mps 746 mmHg 90%
20:00 +9°C° 0 mm 5 mps 746 mmHg 93%
21:00 +8°C° 0 mm 4 mps 746 mmHg 95%
22:00 +7°C° 0 mm 4 mps 746 mmHg 96%
23:00 +6°C° 0 mm 4 mps 746 mmHg 97%

Tomorrow, 12 April, Monday

Time Temperature Precipitation Wind Pressure Humidity
00:00 +5°C° 0 mm 3 mps 746 mmHg 99%
01:00 +5°C° 0 mm 3 mps 745 mmHg 100%
02:00 +4°C° 0 mm 3 mps 745 mmHg 100%
03:00 +4°C° 0 mm 2 mps 745 mmHg 100%
04:00 +4°C° 0 mm 2 mps 745 mmHg 100%
05:00 +4°C° 0 mm 1 mps 744 mmHg 100%
06:00 +4°C° 0 mm 1 mps 744 mmHg 100%
07:00 +3°C° 0 mm 0 mps 745 mmHg 100%
08:00 +4°C° 0 mm 0 mps 745 mmHg 100%
09:00 +6°C° 0 mm 0 mps 745 mmHg 99%
10:00 +9°C° 0 mm 1 mps 745 mmHg 96%
11:00 +12°C° 0 mm 2 mps 745 mmHg 96%
12:00 +14°C° 0 mm 2 mps 744 mmHg 93%
13:00 +15°C° 0 mm 2 mps 744 mmHg 85%
14:00 +16°C° 0 mm 3 mps 744 mmHg 87%
15:00 +16°C° 0 mm 3 mps 743 mmHg 81%
16:00 +15°C° 0 mm 4 mps 743 mmHg 82%
17:00 +14°C° 0 mm 4 mps 742 mmHg 90%
18:00 +14°C° 0 mm 5 mps 742 mmHg 94%
19:00 +13°C° 0 mm 4 mps 742 mmHg 96%
20:00 +12°C° 0 mm 3 mps 742 mmHg 98%
21:00 +11°C° 0 mm 3 mps 742 mmHg 99%
22:00 +10°C° 0 mm 2 mps 742 mmHg 100%
23:00 +9°C° 0 mm 3 mps 742 mmHg 100%

Day after tomorrow, 13 April, Tuesday

Time Temperature Precipitation Wind Pressure Humidity
00:00 +9°C° 0 mm 2 mps 741 mmHg 100%
01:00 +8°C° 0 mm 2 mps 741 mmHg 100%
02:00 +9°C° 0 mm 1 mps 741 mmHg 100%
03:00 +8°C° 0 mm 1 mps 740 mmHg 100%
04:00 +8°C° 0 mm 1 mps 740 mmHg 100%
05:00 +7°C° 0 mm 0 mps 740 mmHg 100%
06:00 +7°C° 0 mm 0 mps 740 mmHg 100%
07:00 +7°C° 0 mm 1 mps 740 mmHg 100%
08:00 +7°C° 0 mm 1 mps 740 mmHg 100%
09:00 +7°C° 0 mm 2 mps 740 mmHg 100%
10:00 +9°C° 0 mm 2 mps 740 mmHg 98%
11:00 +13°C° 0 mm 2 mps 740 mmHg 95%
12:00 +14°C° 0 mm 3 mps 740 mmHg 97%
13:00 +16°C° 0 mm 5 mps 739 mmHg 93%
14:00 +17°C° 0.8 mm 3 mps 739 mmHg 91%
15:00 +16°C° 0.2 mm 5 mps 738 mmHg 93%
16:00 +13°C° 2.1 mm 8 mps 738 mmHg 94%
17:00 +13°C° 2.9 mm 4 mps 738 mmHg 97%
18:00 +13°C° 4.7 mm 4 mps 738 mmHg 98%
19:00 +12°C° 1.5 mm 5 mps 737 mmHg 98%
20:00 +12°C° 0.2 mm 4 mps 737 mmHg 99%
21:00 +12°C° 0.1 mm 4 mps 737 mmHg 96%
22:00 +12°C° 0 mm 1 mps 737 mmHg 100%
23:00 +10°C° 0.5 mm 4 mps 737 mmHg 100%

14 April, Wednesday

Time Temperature Precipitation Wind Pressure Humidity
00:00 +7°C° 0.5 mm 5 mps 736 mmHg 99%
01:00 +7°C° 0.1 mm 4 mps 736 mmHg 98%
02:00 +6°C° 0 mm 4 mps 736 mmHg 98%
03:00 +7°C° 0 mm 3 mps 735 mmHg 98%
04:00 +7°C° 0 mm 2 mps 735 mmHg 98%
05:00 +6°C° 0 mm 2 mps 735 mmHg 98%
06:00 +6°C° 0 mm 2 mps 734 mmHg 98%
07:00 +7°C° 0.2 mm 1 mps 734 mmHg 100%
08:00 +7°C° 2.2 mm 1 mps 734 mmHg 100%
09:00 +6°C° 1.2 mm 2 mps 734 mmHg 99%
10:00 +5°C° 0.8 mm 3 mps 733 mmHg 99%
11:00 +8°C° 1.1 mm 2 mps 733 mmHg 100%
12:00 +7°C° 0.6 mm 3 mps 733 mmHg 98%
13:00 +7°C° 0 mm 3 mps 733 mmHg 98%
14:00 +7°C° 0.2 mm 3 mps 733 mmHg 99%
15:00 +9°C° 0 mm 3 mps 733 mmHg 98%
16:00 +11°C° 0 mm 1 mps 733 mmHg 97%
17:00 +11°C° 0 mm 1 mps 733 mmHg 97%
18:00 +11°C° 0 mm 1 mps 733 mmHg 98%
19:00 +11°C° 0 mm 1 mps 733 mmHg 98%
20:00 +11°C° 0 mm 1 mps 734 mmHg 99%
21:00 +10°C° 0 mm 1 mps 734 mmHg 99%
22:00 +10°C° 0 mm 1 mps 734 mmHg 99%
23:00 +9°C° 0 mm 1 mps 734 mmHg 100%

15 April, Thursday

Time Temperature Precipitation Wind Pressure Humidity
00:00 +9°C° 0 mm 1 mps 734 mmHg 100%
01:00 +8°C° 0 mm 2 mps 734 mmHg 99%
02:00 +7°C° 0.1 mm 3 mps 735 mmHg 98%
03:00 +5°C° 0.2 mm 3 mps 735 mmHg 100%
04:00 +5°C° 0.1 mm 4 mps 735 mmHg 100%
05:00 +5°C° 0.1 mm 3 mps 735 mmHg 98%
06:00 +3°C° 2 mm 5 mps 735 mmHg 100%
07:00 +3°C° 2.3 mm 5 mps 736 mmHg 99%
08:00 +3°C° 3.6 mm 4 mps 736 mmHg 100%
09:00 +2°C° 4.3 mm 5 mps 736 mmHg 99%
10:00 +2°C° 1.3 mm 5 mps 737 mmHg 99%
11:00 +3°C° 0.8 mm 6 mps 736 mmHg 99%
12:00 +4°C° 0.7 mm 6 mps 736 mmHg 99%
13:00 +4°C° 0.6 mm 6 mps 736 mmHg 99%
14:00 +4°C° 0.5 mm 7 mps 736 mmHg 99%
15:00 +4°C° 0.4 mm 8 mps 736 mmHg 98%
16:00 +4°C° 0 mm 8 mps 735 mmHg 96%
17:00 +4°C° 1.2 mm 8 mps 735 mmHg 99%
18:00 +4°C° 3.7 mm 7 mps 734 mmHg 99%
19:00 +4°C° 7.9 mm 7 mps 734 mmHg 99%
20:00 +4°C° 0.4 mm 8 mps 734 mmHg 99%
21:00 +4°C° 1.9 mm 7 mps 734 mmHg 99%
22:00 +4°C° 0.6 mm 7 mps 734 mmHg 99%
23:00 +4°C° 0.3 mm 7 mps 734 mmHg 100%

16 April, Friday

Time Temperature Precipitation Wind Pressure Humidity
00:00 +5°C° 0.9 mm 5 mps 734 mmHg 100%
01:00 +6°C° 0.5 mm 4 mps 734 mmHg 100%
02:00 +7°C° 1.2 mm 4 mps 735 mmHg 100%
03:00 +7°C° 0.7 mm 5 mps 735 mmHg 100%
04:00 +7°C° 1 mm 5 mps 735 mmHg 100%
05:00 +7°C° 0.1 mm 5 mps 736 mmHg 97%
06:00 +7°C° 0 mm 6 mps 737 mmHg 97%
07:00 +7°C° 0 mm 6 mps 738 mmHg 97%
08:00 +6°C° 0 mm 7 mps 738 mmHg 96%
09:00 +7°C° 0 mm 6 mps 739 mmHg 95%
10:00 +7°C° 0 mm 6 mps 740 mmHg 95%
11:00 +8°C° 0 mm 7 mps 740 mmHg 93%
12:00 +7°C° 0 mm 8 mps 741 mmHg 91%
13:00 +8°C° 0 mm 7 mps 742 mmHg 89%
14:00 +8°C° 0 mm 7 mps 742 mmHg 87%
15:00 +8°C° 0 mm 7 mps 743 mmHg 83%
16:00 +8°C° 0 mm 7 mps 743 mmHg 81%
17:00 +7°C° 0.1 mm 6 mps 744 mmHg 87%
18:00 +6°C° 0 mm 5 mps 745 mmHg 93%
19:00 +5°C° 0.2 mm 4 mps 745 mmHg 97%
20:00 +3°C° 0 mm 6 mps 746 mmHg 98%
21:00 +3°C° 0 mm 5 mps 746 mmHg 96%
22:00 +4°C° 0.2 mm 4 mps 747 mmHg 95%
23:00 +3°C° 0.1 mm 4 mps 747 mmHg 94%
Show more